{"data":{"norad_id":66443,"epoch":"2026-05-24T15:33:15.172992Z","epoch_age_seconds":102637,"freshness":"FRESH","line1":"1 66443U 25259X   26144.64809228  .00019570  00000+0  71836-3 0  9991","line2":"2 66443  42.9988 205.7581 0001587 274.1668  85.9002 15.27599224 30999","mean_motion":15.27599224,"eccentricity":0.0001587,"inclination_deg":42.9988,"raan_deg":205.7581,"arg_perigee_deg":274.1668,"mean_anomaly_deg":85.9002,"bstar":0.00071836,"rev_number":3099,"period_min":94.265562418222,"perigee_km":481.90267197333,"apogee_km":484.08039416973,"semimajor_km":6861.1285330715,"source":"CELESTRAK","updated_at":"2026-05-25T13:38:21.211663Z"}}